Skip Page Navigation
NASA JPL Caltech
NASA Logo - Jet Propulsion Laboratory + View the NASA Portal
+ Near-Earth Object (NEO) Program
Search JPL
JPL Home Earth Solar System Stars & Galaxies Technology
JPL Solar System Dynamics
BODIES ORBITS EPHEMERIDES TOOLS PHYSICAL DATA DISCOVERY FAQ SITE MAP
JPL Small-Body Database Browser
Search: [ help ]  
(2010 TV149)
Classification: Apollo [NEO, PHA]          SPK-ID: 3549392
Ephemeris | Orbit Diagram | Orbital Elements | Physical Parameters | Close-Approach Data ]

[ hide orbit diagram ]
Orbit Diagram
Note: Make sure you have Java enabled on your browser to see the applet. This applet is provided as a 3D orbit visualization tool. The applet was implemented using 2-body methods, and hence should not be used for determining accurate long-term trajectories (over several years or decades) or planetary encounter circumstances. For accurate long-term ephemerides, please instead use our Horizons system.
Orbit Viewer

Additional Notes: the orbits shown in the applet are color coded. The planets are white lines, and the asteroid/comet is a blue line. The bright white line indicates the portion of the orbit that is above the ecliptic plane, and the darker portion is below the ecliptic plane. Likewise for the asteroid/comet orbit, the light blue indicates the portion above the ecliptic plane, and the dark blue the portion below the ecliptic plane.

Orbit Viewer applet originally written and kindly provided by Osamu Ajiki (AstroArts), and further modified by Ron Baalke (JPL).


Orbital Elements at Epoch 2456400.5 (2013-Apr-18.0) TDB
Reference: JPL 37 (heliocentric ecliptic J2000)
 Element Value Uncertainty (1-sigma)   Units 
e .5188947562527509 4.2439e-08  
a 1.698832058815414 2.8321e-08 AU
q .8173170117420309 7.2319e-08 AU
i 9.807537070361626 1.1962e-05 deg
node 78.72312565009678 4.8176e-05 deg
peri 42.67371367590049 4.8055e-05 deg
M 7.048949532630739 1.2836e-05 deg
tp 2456384.663981540042
(2013-Apr-02.16398154)
2.8542e-05 JED
period 808.7682596100317
2.21
2.0224e-05
5.537e-08
d
yr
n .445121325821544 1.1131e-08 deg/d
Q 2.580347105888798 4.3016e-08 AU
  Orbit Determination Parameters
   # obs. used (total)      254  
   data-arc span      3283 days (8.99 yr)  
   first obs. used      2002-06-15  
   last obs. used      2011-06-11  
   planetary ephem.      DE405  
   SB-pert. ephem.      SB405-CPV-2  
   condition code      0  
   fit RMS      .40311  
   data source      ORB  
   producer      Otto Matic  
   solution date      2011-Sep-14 20:58:31  

Additional Information
 Earth MOID = .0453754 AU 
 T_jup = 4.026 
[ show covariance matrix ]

Ephemeris | Orbit Diagram | Orbital Elements | Physical Parameters | Close-Approach Data ]

Physical Parameter Table
Parameter Symbol Value Units Sigma Reference Notes
absolute magnitude H 18.581 mag .38899 37 autocmod 2.5a

[ show close-approach data ]
Ephemeris | Orbit Diagram | Orbital Elements | Physical Parameters | Close-Approach Data ]
ABOUT SSD CREDITS/AWARDS PRIVACY/COPYRIGHT GLOSSARY LINKS
FirstGov 2013-May-24 09:25 UT
(server date/time)  
NASA Home Page
Site Manager:   Donald K. Yeomans
Webmaster  Alan B. Chamberlin